Weather in Cambridge

United States     42°23′09″N   71°08′30″W
temp.,
°C
wind,
m/s
gust,
m/s
humid.,
%
clouds,
%
prec.,
mm/h
press.,
hPa
HPBL,
m
26 may, thu
thu2623:00+13ssw41060100 0.0 1027370
02:00+11ssw3961100 0.0 1028320
05:00+9ssw2866100 0.0 1027233
08:00+14ssw3649100 0.0 1027454
11:00+20ssw4733100 0.0 10251242
14:00+22ssw6829100 0.0 10231534
17:00+21ssw6936100 0.0 10211381
20:00+17ssw51061100 0.0 1020848
27 may, fri
fri2723:00+14ssw4148224 0.0 1019642
02:00+14sw4149165 0.0 1018559
05:00+15ssw3129574 0.0 1016502
08:00+19ssw41385100 0.0 1016713
11:00+23sw6127288 0.0 10141129
14:00+28sw695189 0.1 10121594
17:00+26ssw61162100 0.0 10111327
20:00+21ssw51283100 0.1 1011752
28 may, sat
sat2823:00+19ssw41295100 0.4 1011571
02:00+18ssw41394100 0.8 1009915
05:00+18ssw31194100 0.1 1008769
08:00+19s51489100 0.2 1008835
11:00+20ssw41087100 0.1 1007829
14:00+25sw4955100 0.2 10051390
17:00+24sw4858100 0.0 10041333
20:00+19w37905 1.6 1006133
29 may, sun
sun2923:00+16wnw259745 0.3 1009111
02:00+15nw311952 0.3 1010386
05:00+12nw27935 0.0 1012157
08:00+17nnw24683 0.0 1014389
11:00+23wnw12425 0.0 10161458
14:00+26wnw123359 0.0 10151984
17:00+26se12345 0.0 10141495
20:00+19se376196 0.0 1016185
30 may, mon
mon3023:00+16ssw2675100 0.0 1017139
02:00+15sw2368100 0.0 101769
05:00+15wsw2562100 0.0 101796
08:00+20w2557100 0.0 1018233
11:00+27wsw2539100 0.0 10171138
14:00+25wnw245388 0.0 1015549
17:00+26e235299 0.0 1013113
20:00+20e1264100 0.0 101485